EW6473 Weather Reports


time (UTC)temp
C
wind
direction
speed
KPH
gust
KPH
rain 1hr
cm
rain 24hr
cm
rain mn
cm
humidity
%
barometer
mb
20260507040016 15 0 0.0 3.2 0.00 0.00 0.00 72 1018.3
20260507034516 16 0 0.0 1.6 0.00 0.00 0.00 70 1018.3
20260507033018 16 0 0.0 3.2 0.00 0.00 0.00 67 1018.4
20260507031518 17 338 0.0 1.6 0.00 0.00 0.00 64 1018.2
20260507030018 18 315 0.0 4.8 0.00 0.00 0.00 61 1017.9
20260507024518 19 315 1.6 4.8 0.00 0.00 0.00 59 1018.0
20260507023018 20 315 1.6 4.8 0.00 0.00 0.00 56 1017.5
20260507021518 20 338 1.6 8.0 0.00 0.00 0.00 53 1017.5
20260507020017 21 315 1.6 8.0 0.00 0.00 0.00 50 1017.1
20260507014518 21 315 1.6 12.9 0.00 0.00 0.00 49 1017.1
20260507013017 21 315 3.2 12.9 0.00 0.00 0.00 48 1017.0
20260507011518 21 315 3.2 11.3 0.00 0.00 0.00 48 1017.0
20260507010017 22 338 3.2 12.9 0.00 0.00 0.00 47 1017.1
20260507004517 22 338 1.6 12.9 0.00 0.00 0.00 45 1017.0
20260507003017 23 225 3.2 12.9 0.00 0.00 0.00 43 1017.1
20260507001517 23 225 3.2 11.3 0.00 0.00 0.00 42 1017.0
20260507000017 23 315 1.6 11.3 0.00 0.00 0.00 41 1017.0
20260506234537 23 338 3.2 16.1 0.00 0.00 0.00 41 1016.8
20260506233017 23 315 3.2 14.5 0.00 0.00 0.00 41 1016.9
20260506231518 22 315 3.2 16.1 0.00 0.00 0.00 41 1017.0
20260506230017 23 225 3.2 12.9 0.00 0.00 0.00 40 1017.1
20260506224517 23 225 3.2 11.3 0.00 0.00 0.00 42 1017.3
20260506223017 22 315 3.2 11.3 0.00 0.00 0.00 42 1017.4
20260506221517 22 203 3.2 12.9 0.00 0.00 0.00 42 1017.6
20260506220037 22 225 3.2 12.9 0.00 0.00 0.00 43 1017.7
20260506214517 21 225 3.2 12.9 0.00 0.00 0.00 44 1017.7
20260506213017 22 203 4.8 14.5 0.00 0.00 0.00 44 1018.0
20260506211517 21 315 3.2 11.3 0.00 0.00 0.00 46 1018.1
20260506210037 21 315 4.8 16.1 0.00 0.00 0.00 46 1018.0
20260506204537 21 315 3.2 11.3 0.00 0.00 0.00 48 1018.3
20260506203017 20 203 4.8 16.1 0.00 0.00 0.00 50 1018.3
20260506201516 20 315 3.2 12.9 0.00 0.00 0.00 50 1018.6
20260506200017 20 315 3.2 14.5 0.00 0.00 0.00 51 1018.9
20260506194537 19 315 3.2 12.9 0.00 0.00 0.00 52 1019.1
20260506193017 19 315 3.2 12.9 0.00 0.00 0.00 50 1019.1
20260506191558 18 315 3.2 12.9 0.00 0.00 0.00 53 1019.2
20260506190018 18 338 3.2 14.5 0.00 0.00 0.00 52 1019.3
20260506184517 17 225 3.2 12.9 0.00 0.00 0.00 53 1019.5
20260506183016 17 338 3.2 12.9 0.00 0.00 0.00 57 1019.7
20260506181516 16 315 3.2 14.5 0.00 0.00 0.00 58 1019.6
20260506180017 16 315 3.2 9.7 0.00 0.00 0.00 57 1019.7
20260506174516 15 315 3.2 12.9 0.00 0.00 0.00 59 1019.6
20260506173016 15 315 3.2 11.3 0.00 0.00 0.00 60 1019.6
20260506171516 15 338 3.2 12.9 0.00 0.00 0.00 60 1019.7
20260506170016 14 203 3.2 9.7 0.00 0.00 0.00 65 1019.7
20260506164517 14 293 1.6 9.7 0.00 0.00 0.00 63 1019.6
20260506163016 13 315 3.2 14.5 0.00 0.00 0.00 66 1019.7
20260506161517 13 225 3.2 11.3 0.00 0.00 0.00 65 1019.3
20260506160016 13 315 1.6 8.0 0.00 0.00 0.00 67 1019.2
20260506154516 13 225 1.6 4.8 0.00 0.00 0.00 67 1019.1
20260506153016 12 225 1.6 6.4 0.00 0.00 0.00 66 1019.1
20260506151516 12 338 0.0 6.4 0.00 0.00 0.00 70 1019.2
20260506150016 12 0 0.0 3.2 0.00 0.00 0.00 73 1019.2
20260506144516 11 0 0.0 3.2 0.00 0.00 0.00 76 1019.1
20260506143016 10 90 0.0 1.6 0.00 0.03 0.00 81 1018.9
20260506141516 8 0 0.0 3.2 0.00 0.05 0.00 87 1018.8
20260506140038 7 0 0.0 4.8 0.00 0.18 0.00 89 1018.4
20260506134558 7 0 1.6 4.8 0.00 0.58 0.00 89 1018.2
20260506133018 7 0 1.6 4.8 0.00 0.61 0.00 89 1018.1
20260506131518 6 0 3.2 6.4 0.00 0.61 0.00 90 1017.9
20260506130018 6 0 3.2 6.4 0.00 0.61 0.00 89 1017.9
20260506124518 7 0 1.6 4.8 0.00 0.61 0.00 90 1017.7
20260506123018 6 0 1.6 6.4 0.00 0.61 0.00 89 1017.7
20260506121517 6 0 1.6 4.8 0.00 0.61 0.00 90 1017.8
20260506120018 7 0 1.6 4.8 0.00 0.61 0.00 89 1017.8
20260506114517 7 0 3.2 4.8 0.00 0.61 0.00 89 1017.9
20260506113018 7 0 1.6 6.4 0.00 0.61 0.00 89 1017.9
20260506111538 7 0 1.6 4.8 0.00 0.61 0.00 89 1017.9
20260506110018 7 0 1.6 4.8 0.00 0.61 0.00 89 1017.9
20260506104517 7 0 1.6 4.8 0.00 0.61 0.00 89 1017.9
20260506103038 7 0 1.6 4.8 0.00 0.61 0.00 89 1017.9
20260506101519 7 0 1.6 4.8 0.00 0.61 0.00 88 1018.0
20260506100017 7 0 1.6 3.2 0.00 0.61 0.00 87 1018.0
20260506094537 7 0 1.6 4.8 0.00 0.61 0.00 87 1018.0
20260506093038 7 0 0.0 4.8 0.00 0.61 0.00 87 1018.0
20260506091537 8 0 1.6 6.4 0.00 0.61 0.00 86 1018.1
20260506090017 8 0 1.6 4.8 0.00 0.61 0.00 86 1018.2
20260506084517 8 0 3.2 6.4 0.00 0.61 0.00 85 1018.4
20260506083017 8 0 0.0 3.2 0.00 0.64 0.00 84 1018.3
20260506081517 8 0 0.0 3.2 0.00 0.69 0.00 83 1018.2
20260506073017 11 0 0.0 0.0 0.00 0.69 0.00 78 1018.5
20260506071517 11 0 0.0 0.0 0.00 0.69 0.00 78 1018.4
20260506061517 11 0 3.2 6.4 0.00 0.69 0.69 75 1018.0
20260506044516 12 0 0.0 3.2 0.00 0.69 0.69 69 1016.9
20260506043017 12 0 0.0 3.2 0.00 0.69 0.69 68 1016.9
20260506041516 12 0 1.6 9.7 0.00 0.69 0.69 66 1016.7